Location: Unnamed
(45.3580°N, 90.2245°W)
Time: 13:05:47
(UTC-05:00)

Envisat - Pass Details

Date: 13 March 2021
Orbit: 764 x 766 km, 98.1° (Epoch: 21 April)

Event Time Altitude Azimuth Distance (km) Brightness Sun altitude
Rises 04:28:11 0° 28° (NNE) 3,242 6.9 -19.7°
Reaches altitude 10° 04:31:15 10° 48° (NE) 2,310 6.4 -19.2°
Maximum altitude 04:34:40 18° 90° (E) 1,818 5.9 -18.6°
Drops below altitude 10° 04:38:04 10° 133° (SE) 2,297 5.9 -18.0°
Sets 04:41:05 0° 152° (SSE) 3,217 6.4 -17.5°
